{"data":{"norad_id":49962,"intl_designator":"2021-122B","name":"SHIJIAN-6 05B (SJ-6 05B)","alt_names":[],"object_type":"PAYLOAD","status":"ACTIVE","operator":null,"country":"PRC","launch_date":"2021-12-10","launch_site_code":"JSC","launch_vehicle":null,"mission":null,"orbit_class":"UNKNOWN","rcs_meters":null,"size_class":null,"mass_kg":null,"dimensions":null,"purposes":[],"wikipedia_slug":null,"has_3d_model":false,"image_url":null,"decayed_at":null,"tle_current":{"epoch":"2026-05-24T17:58:49.954656Z","epoch_age_seconds":100022,"freshness":"FRESH","line1":"1 49962U 21122B   26144.74918929  .00001625  00000+0  98855-4 0  9996","line2":"2 49962  97.3779 126.1738 0003113 101.6906 258.4674 15.11774133246206","mean_motion":15.11774133,"eccentricity":0.0003113,"inclination_deg":97.3779,"raan_deg":126.1738,"arg_perigee_deg":101.6906,"mean_anomaly_deg":258.4674,"bstar":9.8855e-5,"rev_number":24620,"period_min":95.25232431001,"perigee_km":528.6386779454,"apogee_km":532.94017553869,"semimajor_km":6908.926426742,"source":"CELESTRAK","updated_at":"2026-05-25T13:37:57.278214Z"}}}